FW6908 Weather Reports


time (UTC)temp
F
wind
direction
speed
knots
gust
knots
rain 1hr
in
rain 24hr
in
rain mn
in
humidity
%
barometer
mb
20260831183023 82 70 3.5 11.3 0.00 0.00 0.00 42 1015.4
20260831182523 82 72 6.1 11.3 0.00 0.00 0.00 42 1015.4
20260831182023 82 68 4.3 9.6 0.00 0.00 0.00 42 1015.3
20260831181524 83 60 5.2 9.6 0.00 0.00 0.00 42 1015.3
20260831181023 83 82 4.3 8.7 0.00 0.00 0.00 42 1015.3
20260831180522 83 72 3.5 9.6 0.00 0.00 0.00 42 1015.2
20260831180022 83 59 6.1 9.6 0.00 0.00 0.00 41 1015.2
20260831175622 83 71 6.1 11.3 0.00 0.00 0.00 41 1015.3
20260831175022 83 92 5.2 11.3 0.00 0.00 0.00 41 1015.2
20260831174521 83 62 6.1 11.3 0.00 0.00 0.00 41 1015.2
20260831174021 83 90 7.0 13.9 0.00 0.00 0.00 41 1015.1
20260831173521 84 67 7.0 13.9 0.00 0.00 0.00 41 1015.1
20260831173023 84 33 7.8 13.9 0.00 0.00 0.00 41 1015.2
20260831172521 84 67 5.2 12.2 0.00 0.00 0.00 40 1015.1
20260831172020 84 69 4.3 13.0 0.00 0.00 0.00 40 1015.0
20260831171520 85 65 6.1 12.2 0.00 0.00 0.00 40 1014.9
20260831171020 85 78 6.1 11.3 0.00 0.00 0.00 40 1014.9
20260831170520 85 59 5.2 12.2 0.00 0.00 0.00 40 1015.0
20260831170021 85 101 6.1 12.2 0.00 0.00 0.00 39 1015.0
20260831165520 85 82 6.1 13.9 0.00 0.00 0.00 39 1015.0
20260831165019 85 74 7.0 13.9 0.00 0.00 0.00 39 1015.0
20260831164521 86 77 7.0 14.8 0.00 0.00 0.00 39 1015.1
20260831164019 86 61 7.8 14.8 0.00 0.00 0.00 39 1015.1
20260831163519 86 75 7.0 13.0 0.00 0.00 0.00 39 1015.1
20260831163019 87 76 7.0 11.3 0.00 0.00 0.00 39 1015.1
20260831162519 87 83 4.3 13.9 0.00 0.00 0.00 39 1015.1
20260831162017 87 57 8.7 13.0 0.00 0.00 0.00 39 1015.1
20260831161517 88 90 7.0 11.3 0.00 0.00 0.00 38 1015.1
20260831161017 88 138 4.3 11.3 0.00 0.00 0.00 38 1015.1
20260831160517 88 39 2.6 11.3 0.00 0.00 0.00 38 1015.0
20260831160016 88 121 6.1 10.4 0.00 0.00 0.00 38 1015.2
20260831155518 88 75 6.1 13.9 0.00 0.00 0.00 38 1015.1
20260831155016 88 105 7.8 14.8 0.00 0.00 0.00 38 1015.0
20260831154524 89 61 7.0 10.4 0.00 0.00 0.00 38 1015.1
20260831154014 89 84 1.7 11.3 0.00 0.00 0.00 38 1014.9
20260831153514 89 94 6.1 11.3 0.00 0.00 0.00 38 1015.0
20260831153015 89 47 5.2 11.3 0.00 0.00 0.00 38 1015.0
20260831152511 89 78 6.1 13.9 0.00 0.00 0.00 38 1014.9
20260831152011 89 119 8.7 13.0 0.00 0.00 0.00 38 1014.9
20260831151510 90 112 8.7 13.0 0.00 0.00 0.00 37 1014.9
20260831151011 90 65 6.1 11.3 0.00 0.00 0.00 37 1014.9
20260831150507 90 144 5.2 13.0 0.00 0.00 0.00 37 1014.8
20260831150008 90 82 8.7 13.9 0.00 0.00 0.00 38 1014.8
20260831145507 90 43 7.0 13.9 0.00 0.00 0.00 37 1014.8
20260831145012 90 59 4.3 11.3 0.00 0.00 0.00 37 1014.8
20260831144507 91 11 3.5 11.3 0.00 0.00 0.00 38 1014.8
20260831144107 90 103 7.0 12.2 0.00 0.00 0.00 38 1015.0
20260831143507 90 83 7.8 12.2 0.00 0.00 0.00 38 1015.0
20260831143008 90 45 3.5 8.7 0.00 0.00 0.00 38 1015.0
20260831142506 90 132 2.6 11.3 0.00 0.00 0.00 38 1014.9
20260831142006 90 101 3.5 11.3 0.00 0.00 0.00 38 1014.9
20260831141505 90 111 5.2 10.4 0.00 0.00 0.00 38 1015.0
20260831141008 90 134 2.6 12.2 0.00 0.00 0.00 38 1015.2
20260831140505 91 82 7.0 12.2 0.00 0.00 0.00 38 1015.1
20260831140007 91 107 3.5 16.5 0.00 0.00 0.00 38 1015.1
20260831135505 91 80 10.4 16.5 0.00 0.00 0.00 38 1014.9
20260831135005 90 167 8.7 13.0 0.00 0.00 0.00 39 1015.0
20260831134513 90 158 6.1 11.3 0.00 0.00 0.00 39 1015.0
20260831134005 90 110 5.2 13.0 0.00 0.00 0.00 39 1015.0
20260831133504 91 96 6.1 13.9 0.00 0.00 0.00 38 1015.0
20260831133010 91 117 5.2 12.2 0.00 0.00 0.00 38 1014.9
20260831132503 91 109 7.0 12.2 0.00 0.00 0.00 38 1014.9
20260831132004 91 130 5.2 13.0 0.00 0.00 0.00 39 1014.9
20260831131503 91 147 7.0 17.4 0.00 0.00 0.00 40 1014.9
20260831131004 91 140 7.8 17.4 0.00 0.00 0.00 40 1014.9
20260831130503 91 111 6.1 13.9 0.00 0.00 0.00 39 1015.0
20260831130005 91 101 5.2 13.0 0.00 0.00 0.00 39 1014.9
20260831125502 91 115 7.0 13.0 0.00 0.00 0.00 39 1015.0
20260831125001 92 93 2.6 13.0 0.00 0.00 0.00 39 1015.0
20260831124500 91 115 8.7 17.4 0.00 0.00 0.00 39 1015.1
20260831124001 92 109 8.7 16.5 0.00 0.00 0.00 38 1015.1
20260831123600 92 105 3.5 13.0 0.00 0.00 0.00 38 1015.1
20260831123102 92 102 7.8 16.5 0.00 0.00 0.00 38 1015.2
20260831122603 92 82 8.7 16.5 0.00 0.00 0.00 38 1015.3
20260831122059 91 115 8.7 14.8 0.00 0.00 0.00 39 1015.2
20260831121621 91 110 8.7 15.6 0.00 0.00 0.00 38 1015.2
20260831121059 92 123 8.7 15.6 0.00 0.00 0.00 38 1015.3
20260831120600 92 84 6.1 15.6 0.00 0.00 0.00 39 1015.3
20260831120058 92 101 6.1 13.0 0.00 0.00 0.00 38 1015.3
20260831115557 92 105 7.0 13.0 0.00 0.00 0.00 39 1015.3
20260831115059 92 113 5.2 15.6 0.00 0.00 0.00 39 1015.4
20260831114556 91 91 7.0 15.6 0.00 0.00 0.00 39 1015.5
20260831114056 92 124 7.0 14.8 0.00 0.00 0.00 39 1015.6
20260831113556 92 130 3.5 13.0 0.00 0.00 0.00 39 1015.6
20260831113105 92 142 7.8 13.0 0.00 0.00 0.00 38 1015.6
20260831112554 92 57 6.1 12.2 0.00 0.00 0.00 39 1015.8
20260831112051 91 72 4.3 9.6 0.00 0.00 0.00 40 1015.8
20260831111553 92 129 4.3 10.4 0.00 0.00 0.00 39 1015.8
20260831111049 91 60 5.2 12.2 0.00 0.00 0.00 40 1015.9
20260831110548 91 103 7.0 12.2 0.00 0.00 0.00 39 1016.0
20260831110048 90 115 6.1 13.0 0.00 0.00 0.00 40 1016.0
20260831105547 91 88 8.7 13.0 0.00 0.00 0.00 40 1016.2
20260831105048 90 147 6.1 13.9 0.00 0.00 0.00 40 1016.2
20260831104555 91 104 9.6 13.9 0.00 0.00 0.00 40 1016.2
20260831104045 91 120 8.7 13.0 0.00 0.00 0.00 39 1016.2
20260831103548 91 115 6.1 13.0 0.00 0.00 0.00 40 1016.4
20260831103043 90 51 7.8 15.6 0.00 0.00 0.00 40 1016.4
20260831102546 90 94 9.6 15.6 0.00 0.00 0.00 39 1016.4
20260831102042 91 116 6.1 12.2 0.00 0.00 0.00 40 1016.5
20260831101545 91 65 2.6 11.3 0.00 0.00 0.00 40 1016.6
20260831101041 90 69 5.2 14.8 0.00 0.00 0.00 40 1016.6
20260831100544 90 116 8.7 14.8 0.00 0.00 0.00 41 1016.6
20260831100039 90 90 6.1 14.8 0.00 0.00 0.00 41 1016.6
20260831095539 89 128 7.8 14.8 0.00 0.00 0.00 41 1016.6
20260831095038 89 96 7.0 12.2 0.00 0.00 0.00 41 1016.7
20260831094543 90 103 7.0 12.2 0.00 0.00 0.00 41 1016.8
20260831094036 90 68 3.5 14.8 0.00 0.00 0.00 42 1016.8
20260831093536 89 61 7.0 14.8 0.00 0.00 0.00 42 1016.9
20260831093047 89 88 6.1 14.8 0.00 0.00 0.00 43 1016.9
20260831092534 89 95 8.7 14.8 0.00 0.00 0.00 42 1016.9
20260831092031 89 5 4.3 12.2 0.00 0.00 0.00 42 1017.0
20260831091541 89 104 3.5 11.3 0.00 0.00 0.00 42 1017.0
20260831091031 89 55 5.2 13.9 0.00 0.00 0.00 42 1017.0
20260831090529 88 101 7.8 13.9 0.00 0.00 0.00 43 1017.1
20260831090027 88 128 4.3 12.2 0.00 0.00 0.00 43 1017.1
20260831085526 88 14 7.0 12.2 0.00 0.00 0.00 43 1017.2
20260831085024 88 50 7.8 12.2 0.00 0.00 0.00 44 1017.2
20260831084555 88 30 6.1 12.2 0.00 0.00 0.00 44 1017.2
20260831084021 88 115 6.1 10.4 0.00 0.00 0.00 44 1017.2
20260831083520 87 62 4.3 12.2 0.00 0.00 0.00 44 1017.3
20260831083019 87 65 6.1 12.2 0.00 0.00 0.00 44 1017.3
20260831082518 87 47 6.1 11.3 0.00 0.00 0.00 45 1017.3
20260831082019 87 72 3.5 13.9 0.00 0.00 0.00 46 1017.3
20260831081516 87 31 8.7 15.6 0.00 0.00 0.00 45 1017.4
20260831081015 86 75 8.7 15.6 0.00 0.00 0.00 46 1017.3
20260831080512 86 110 7.8 13.9 0.00 0.00 0.00 46 1017.2
20260831080032 86 85 4.3 13.0 0.00 0.00 0.00 47 1017.2
20260831075510 86 55 8.7 16.5 0.00 0.00 0.00 47 1017.2
20260831075009 86 61 10.4 16.5 0.00 0.00 0.00 46 1017.3
20260831074521 86 92 6.1 13.0 0.00 0.00 0.00 47 1017.2
20260831074006 85 117 4.3 13.9 0.00 0.00 0.00 48 1017.2
20260831073508 85 90 10.4 13.9 0.00 0.00 0.00 48 1017.2
20260831073003 85 56 7.8 13.9 0.00 0.00 0.00 49 1017.2
20260831072505 85 74 7.0 15.6 0.00 0.00 0.00 49 1017.2
20260831072100 84 87 8.7 15.6 0.00 0.00 0.00 49 1017.2
20260831071610 84 64 7.0 15.6 0.00 0.00 0.00 50 1017.2
20260831071057 84 88 10.4 16.5 0.00 0.00 0.00 49 1017.2
20260831070556 84 93 6.1 16.5 0.00 0.00 0.00 49 1017.1
20260831070055 84 98 9.6 14.8 0.00 0.00 0.00 49 1017.2
20260831065555 84 85 7.0 14.8 0.00 0.00 0.00 49 1017.1
20260831065052 84 107 6.1 13.0 0.00 0.00 0.00 49 1017.0
20260831064556 83 104 5.2 12.2 0.00 0.00 0.00 50 1016.9
20260831064049 83 99 6.1 11.3 0.00 0.00 0.00 52 1017.0
20260831063547 82 58 7.0 9.6 0.00 0.00 0.00 52 1017.1
20260831063102 82 115 3.5 9.6 0.00 0.00 0.00 54 1017.0
20260831062544 81 69 6.1 9.6 0.00 0.00 0.00 54 1017.0
20260831062043 81 117 4.3 12.2 0.00 0.00 0.00 55 1017.0
20260831061541 81 101 7.8 12.2 0.00 0.00 0.00 54 1017.1
20260831061039 81 100 7.0 12.2 0.00 0.00 0.00 54 1017.2
20260831060539 80 116 4.3 13.0 0.00 0.00 0.00 54 1017.2
20260831060037 80 73 5.2 13.0 0.00 0.00 0.00 55 1017.2
20260831055535 80 128 7.8 13.0 0.00 0.00 0.00 55 1017.2
20260831055036 80 84 7.8 13.0 0.00 0.00 0.00 56 1017.3
20260831054533 79 103 6.1 13.0 0.00 0.00 0.00 57 1017.3
20260831054031 79 88 7.0 14.8 0.00 0.00 0.00 57 1017.1
20260831053529 79 76 7.0 14.8 0.00 0.00 0.00 58 1017.0
20260831053028 79 98 9.6 13.0 0.00 0.00 0.00 58 1017.1
20260831052526 79 96 7.8 15.6 0.00 0.00 0.00 59 1017.0
20260831052024 78 67 7.8 15.6 0.00 0.00 0.00 59 1017.1
20260831051533 78 91 8.7 13.0 0.00 0.00 0.00 60 1017.1
20260831051021 78 83 7.0 12.2 0.00 0.00 0.00 60 1017.0
20260831050526 78 92 8.7 12.2 0.00 0.00 0.00 60 1016.9
20260831050019 78 69 7.0 12.2 0.00 0.00 0.00 60 1017.0
20260831045521 77 99 5.2 11.3 0.00 0.00 0.00 58 1017.0
20260831045016 77 84 2.6 7.0 0.00 0.00 0.00 56 1016.9
20260831044517 77 76 1.7 5.2 0.00 0.00 0.00 55 1016.8
20260831044014 77 19 3.5 7.0 0.00 0.00 0.00 55 1016.9
20260831043512 77 58 2.6 7.0 0.00 0.00 0.00 54 1016.9
20260831043011 77 15 1.7 5.2 0.00 0.00 0.00 54 1016.9
20260831042510 76 45 1.7 4.3 0.00 0.00 0.00 54 1016.8
20260831042009 76 58 1.7 7.0 0.00 0.00 0.00 55 1016.8
20260831041511 75 38 3.5 7.0 0.00 0.00 0.00 55 1016.8
20260831041009 75 36 2.6 6.1 0.00 0.00 0.00 55 1016.7
20260831040506 75 28 2.6 5.2 0.00 0.00 0.00 55 1016.8
20260831040015 75 38 2.6 5.2 0.00 0.00 0.00 55 1016.8
20260831035505 75 13 2.6 5.2 0.00 0.00 0.00 55 1016.8
20260831035005 75 5 3.5 5.2 0.00 0.00 0.00 55 1016.9
20260831034506 76 23 2.6 4.3 0.00 0.00 0.00 55 1016.8
20260831034005 76 17 1.7 4.3 0.00 0.00 0.00 54 1016.8
20260831033504 76 17 1.7 5.2 0.00 0.00 0.00 53 1016.9
20260831033007 77 36 2.6 9.6 0.00 0.00 0.00 52 1016.8
20260831032504 78 86 6.1 9.6 0.00 0.00 0.00 51 1016.8
20260831032003 78 79 5.2 8.7 0.00 0.00 0.00 51 1016.9
20260831031503 78 74 1.7 6.1 0.00 0.00 0.00 51 1016.8
20260831031003 78 101 2.6 6.1 0.00 0.00 0.00 51 1016.8
20260831030503 78 73 3.5 10.4 0.00 0.00 0.00 50 1016.7
20260831030003 79 102 6.1 12.2 0.00 0.00 0.00 50 1016.7
20260831025502 78 66 7.0 12.2 0.00 0.00 0.00 50 1016.7
20260831025002 78 143 7.0 11.3 0.00 0.00 0.00 50 1016.6
20260831024502 78 82 6.1 12.2 0.00 0.00 0.00 51 1016.6
20260831024000 78 81 7.0 12.2 0.00 0.00 0.00 51 1016.6
20260831023500 78 91 7.0 11.3 0.00 0.00 0.00 51 1016.6
20260831023104 78 64 7.8 11.3 0.00 0.00 0.00 52 1016.6
20260831022559 78 109 6.1 10.4 0.00 0.00 0.00 53 1016.6
20260831022059 77 72 4.3 8.7 0.00 0.00 0.00 53 1016.7
20260831021601 76 84 5.2 7.8 0.00 0.00 0.00 55 1016.6
20260831021059 76 73 2.6 5.2 0.00 0.00 0.00 57 1016.7
20260831020559 76 53 0.9 4.3 0.00 0.00 0.00 57 1016.8
20260831020059 75 41 2.6 5.2 0.00 0.00 0.00 57 1016.8
20260831015600 75 37 2.6 5.2 0.00 0.00 0.00 58 1016.8
20260831015058 75 30 3.5 4.3 0.00 0.00 0.00 58 1016.8
20260831014607 75 32 2.6 5.2 0.00 0.00 0.00 59 1016.8
20260831014057 75 27 3.5 5.2 0.00 0.00 0.00 59 1016.8
20260831013556 75 32 2.6 4.3 0.00 0.00 0.00 59 1016.8
20260831013057 75 31 2.6 7.0 0.00 0.00 0.00 59 1016.8
20260831012556 75 46 3.5 7.8 0.00 0.00 0.00 59 1016.8
20260831012054 75 38 4.3 7.8 0.00 0.00 0.00 58 1016.9
20260831011559 75 57 3.5 7.0 0.00 0.00 0.00 58 1016.8
20260831011052 76 32 3.5 7.8 0.00 0.00 0.00 58 1016.9
20260831010553 76 33 5.2 7.8 0.00 0.00 0.00 57 1017.0
20260831005550 78 69 2.6 7.8 0.00 0.00 0.00 54 1017.0
20260831005049 78 110 2.6 9.6 0.00 0.00 0.00 54 1017.0
20260831004549 78 97 4.3 9.6 0.00 0.00 0.00 55 1017.0
20260831004049 78 109 3.5 10.4 0.00 0.00 0.00 55 1016.9
20260831003550 78 106 6.1 11.3 0.00 0.00 0.00 55 1017.0
20260831003050 78 98 7.0 11.3 0.00 0.00 0.00 56 1017.1
20260831002547 77 87 4.3 7.8 0.00 0.00 0.00 57 1017.1
20260831002048 77 52 2.6 6.1 0.00 0.00 0.00 58 1017.1
20260831001546 77 53 2.6 7.0 0.00 0.00 0.00 57 1017.1
20260831001046 77 61 3.5 7.0 0.00 0.00 0.00 57 1017.2
20260831000546 77 55 1.7 5.2 0.00 0.00 0.00 57 1017.2
20260831000046 77 46 1.7 4.3 0.00 0.00 0.00 57 1017.2
20260830235548 77 19 0.9 2.6 0.00 0.00 0.00 57 1017.1
20260830235048 77 348 0.0 2.6 0.00 0.00 0.00 57 1017.2
20260830234546 77 355 0.0 3.5 0.00 0.00 0.00 57 1017.2
20260830234044 77 350 1.7 3.5 0.00 0.00 0.00 57 1017.1
20260830233544 78 355 2.6 4.3 0.00 0.00 0.00 56 1017.3
20260830233045 78 15 2.6 4.3 0.00 0.00 0.00 56 1017.2
20260830232543 78 360 2.6 4.3 0.00 0.00 0.00 56 1017.2
20260830232043 78 5 2.6 4.3 0.00 0.00 0.00 56 1017.2
20260830231543 78 46 0.0 1.7 0.00 0.00 0.00 56 1017.2
20260830231043 78 46 0.0 1.7 0.00 0.00 0.00 56 1017.2
20260830230542 78 46 0.0 1.7 0.00 0.00 0.00 56 1017.3
20260830230042 78 45 0.0 2.6 0.00 0.00 0.00 56 1017.3
20260830225541 78 40 0.9 4.3 0.00 0.00 0.00 55 1017.4
20260830225041 78 40 1.7 4.3 0.00 0.00 0.00 56 1017.3
20260830224542 77 55 1.7 4.3 0.00 0.00 0.00 56 1017.3
20260830224042 77 55 1.7 5.2 0.00 0.00 0.00 56 1017.3
20260830223540 77 28 3.5 5.2 0.00 0.00 0.00 55 1017.4
20260830223039 77 5 2.6 4.3 0.00 0.00 0.00 55 1017.5
20260830222538 77 5 1.7 3.5 0.00 0.00 0.00 55 1017.5
20260830222038 77 5 0.9 1.7 0.00 0.00 0.00 54 1017.5
20260830221540 78 5 0.9 2.6 0.00 0.00 0.00 53 1017.6
20260830221037 78 9 0.9 4.3 0.00 0.00 0.00 52 1017.6
20260830220537 78 5 1.7 4.3 0.00 0.00 0.00 52 1017.6
20260830220037 78 13 0.9 4.3 0.00 0.00 0.00 52 1017.6
20260830215536 78 40 1.7 4.3 0.00 0.00 0.00 51 1017.6
20260830215036 78 38 2.6 4.3 0.00 0.00 0.00 51 1017.6
20260830214535 78 82 1.7 4.3 0.00 0.00 0.00 52 1017.6
20260830214035 78 59 0.9 3.5 0.00 0.00 0.00 52 1017.8
20260830213637 77 58 0.9 4.3 0.00 0.00 0.00 53 1017.6
20260830213034 77 65 1.7 5.2 0.00 0.00 0.00 53 1017.6
20260830212533 77 52 3.5 5.2 0.00 0.00 0.00 53 1017.6
20260830212032 77 16 2.6 4.3 0.00 0.00 0.00 53 1017.6
20260830210529 78 74 1.7 3.5 0.00 0.00 0.00 52 1017.6
20260830210031 78 47 0.9 4.3 0.00 0.00 0.00 52 1017.6
20260830205528 78 47 1.7 4.3 0.00 0.00 0.00 52 1017.6
20260830205029 78 69 1.7 7.0 0.00 0.00 0.00 53 1017.6
20260830204528 78 76 3.5 7.0 0.00 0.00 0.00 52 1017.6
20260830204028 78 65 2.6 7.0 0.00 0.00 0.00 53 1017.6
20260830203528 78 5 3.5 7.0 0.00 0.00 0.00 52 1017.7
20260830203027 79 5 2.6 7.0 0.00 0.00 0.00 52 1017.5
20260830202527 79 43 3.5 7.0 0.00 0.00 0.00 51 1017.5
20260830202030 80 22 1.7 3.5 0.00 0.00 0.00 50 1017.4
20260830201526 80 59 2.6 5.2 0.00 0.00 0.00 50 1017.4
20260830201026 80 61 0.9 3.5 0.00 0.00 0.00 50 1017.3
20260830200526 79 46 0.9 5.2 0.00 0.00 0.00 51 1017.3
20260830200027 80 52 2.6 5.2 0.00 0.00 0.00 51 1017.2
20260830195526 80 18 2.6 5.2 0.00 0.00 0.00 50 1017.2
20260830195026 80 50 2.6 5.2 0.00 0.00 0.00 49 1017.2
20260830194526 80 51 1.7 8.7 0.00 0.00 0.00 50 1017.3
20260830194026 80 67 3.5 8.7 0.00 0.00 0.00 50 1017.3
20260830193525 79 48 2.6 8.7 0.00 0.00 0.00 51 1017.2
20260830193025 79 35 3.5 8.7 0.00 0.00 0.00 51 1017.2
20260830192525 79 46 3.5 7.8 0.00 0.00 0.00 51 1017.1
20260830192025 80 32 3.5 7.8 0.00 0.00 0.00 51 1017.1
20260830191525 80 20 4.3 7.8 0.00 0.00 0.00 51 1017.1
20260830191027 80 16 4.3 7.8 0.00 0.00 0.00 50 1017.2
20260830190524 81 39 4.3 7.0 0.00 0.00 0.00 50 1017.2
20260830190026 81 9 2.6 8.7 0.00 0.00 0.00 49 1017.1
20260830185524 81 57 4.3 8.7 0.00 0.00 0.00 49 1017.1
20260830185027 80 59 4.3 6.1 0.00 0.00 0.00 51 1017.1
20260830184524 80 25 3.5 5.2 0.00 0.00 0.00 51 1017.0
20260830184025 80 27 3.5 5.2 0.00 0.00 0.00 51 1017.0
20260830183523 80 28 3.5 6.1 0.00 0.00 0.00 52 1016.9